Tracking 22882 objects as of 18-Apr-2021
HD Live streaming from Space Station
objects crossing your sky now

COSMOS 592

Track COSMOS 592 now!
10-day predictions
COSMOS 592 is classified as:


NORAD ID: 6849
Int'l Code: 1973-069E
Perigee: 1,337.6 km
Apogee: 1,490.8 km
Inclination: 74.0 °
Period: 113.9 minutes
Semi major axis: 7785 km
RCS: 0.7024 m2 (medium)
Launch date: October 2, 1973
Source: Commonwealth of Independent States (former USSR) (CIS)
Launch site: PLESETSK MISSILE AND SPACE COMPLEX (PKMTR)
aabbcc
Your satellite tracking list
Your tracking list is empty




NASA's NSSDC Master Catalog

Two Line Element Set (TLE):
1 06849U 73069E   21108.47153979 -.00000007  00000-0  51583-4 0  9993
2 06849  74.0045  29.9728 0098395  18.1884 342.2654 12.63862961193418
Source of the keplerian elements: AFSPC